| time (UTC) | temp C | wind direction | speed KPH | gust KPH | rain 1hr cm | rain 24hr cm | rain mn cm | humidity % | barometer mb |
| 20260505130122 | 8 | 240 | 0.0 | 1.6 | 0.00 | 0.00 | 0.00 | 72 | 1008.3 |
| 20260505124122 | 8 | 0 | 0.0 | 0.0 | 0.00 | 0.00 | 0.00 | 70 | 1008.2 |
| 20260505123122 | 8 | 0 | 0.0 | 0.0 | 0.00 | 0.00 | 0.00 | 70 | 1008.2 |
| 20260505122122 | 8 | 240 | 1.6 | 4.8 | 0.00 | 0.00 | 0.00 | 70 | 1008.2 |
| 20260505121143 | 9 | 239 | 0.0 | 4.8 | 0.00 | 0.00 | 0.00 | 69 | 1008.2 |
| 20260505120122 | 9 | 0 | 0.0 | 0.0 | 0.00 | 0.00 | 0.00 | 68 | 1008.1 |
| 20260505115122 | 9 | 0 | 0.0 | 0.0 | 0.00 | 0.00 | 0.00 | 67 | 1008.0 |
| 20260505114122 | 9 | 130 | 1.6 | 3.2 | 0.00 | 0.00 | 0.00 | 67 | 1007.9 |
| 20260505113122 | 9 | 130 | 1.6 | 3.2 | 0.00 | 0.00 | 0.00 | 67 | 1007.8 |
| 20260505112143 | 9 | 130 | 1.6 | 4.8 | 0.00 | 0.00 | 0.00 | 66 | 1007.8 |
| 20260505111122 | 9 | 130 | 1.6 | 4.8 | 0.00 | 0.00 | 0.00 | 66 | 1007.8 |
| 20260505110122 | 10 | 0 | 0.0 | 0.0 | 0.00 | 0.00 | 0.00 | 64 | 1007.9 |
| 20260505102122 | 10 | 152 | 0.0 | 3.2 | 0.00 | 0.00 | 0.00 | 62 | 1007.8 |
| 20260505101122 | 10 | 151 | 0.0 | 3.2 | 0.00 | 0.00 | 0.00 | 62 | 1007.9 |
| 20260505100122 | 10 | 151 | 0.0 | 3.2 | 0.00 | 0.00 | 0.00 | 62 | 1007.9 |
| 20260505095122 | 10 | 157 | 0.0 | 3.2 | 0.00 | 0.00 | 0.00 | 61 | 1007.9 |
| 20260505094122 | 10 | 156 | 1.6 | 6.4 | 0.00 | 0.00 | 0.00 | 60 | 1007.9 |
| 20260505093122 | 11 | 126 | 3.2 | 4.8 | 0.00 | 0.00 | 0.00 | 59 | 1007.8 |
| 20260505092122 | 11 | 126 | 0.0 | 4.8 | 0.00 | 0.00 | 0.00 | 58 | 1007.9 |
| 20260505091122 | 11 | 122 | 1.6 | 4.8 | 0.00 | 0.00 | 0.00 | 57 | 1007.8 |
| 20260505090122 | 11 | 157 | 1.6 | 4.8 | 0.00 | 0.00 | 0.00 | 57 | 1007.8 |
| 20260505085122 | 12 | 37 | 3.2 | 9.7 | 0.00 | 0.00 | 0.00 | 56 | 1007.9 |
| 20260505084122 | 12 | 5 | 4.8 | 9.7 | 0.00 | 0.00 | 0.00 | 56 | 1008.0 |
| 20260505083122 | 12 | 7 | 3.2 | 6.4 | 0.00 | 0.00 | 0.00 | 56 | 1007.9 |
| 20260505082122 | 12 | 348 | 4.8 | 12.9 | 0.00 | 0.00 | 0.00 | 55 | 1008.0 |
| 20260505081122 | 12 | 357 | 6.4 | 14.5 | 0.00 | 0.00 | 0.00 | 55 | 1008.1 |
| 20260505080122 | 13 | 339 | 4.8 | 12.9 | 0.00 | 0.00 | 0.00 | 55 | 1008.2 |
| 20260505075122 | 13 | 334 | 3.2 | 9.7 | 0.00 | 0.00 | 0.00 | 54 | 1008.2 |
| 20260505074122 | 13 | 350 | 6.4 | 17.7 | 0.00 | 0.00 | 0.00 | 53 | 1008.3 |
| 20260505073122 | 13 | 45 | 6.4 | 17.7 | 0.00 | 0.00 | 0.00 | 52 | 1008.3 |
| 20260505072122 | 13 | 346 | 4.8 | 12.9 | 0.00 | 0.00 | 0.00 | 53 | 1008.2 |
| 20260505071122 | 13 | 13 | 3.2 | 6.4 | 0.00 | 0.00 | 0.00 | 52 | 1008.3 |
| 20260505070122 | 13 | 6 | 4.8 | 11.3 | 0.00 | 0.00 | 0.00 | 51 | 1008.4 |
| 20260505065122 | 13 | 192 | 1.6 | 8.0 | 0.00 | 0.00 | 0.00 | 50 | 1008.2 |
| 20260505064122 | 14 | 219 | 3.2 | 12.9 | 0.00 | 0.00 | 0.00 | 50 | 1008.0 |
| 20260505063122 | 15 | 234 | 6.4 | 25.7 | 0.00 | 0.00 | 0.00 | 48 | 1008.2 |
| 20260505062122 | 15 | 278 | 6.4 | 16.1 | 0.00 | 0.00 | 0.00 | 47 | 1008.0 |
| 20260505061122 | 15 | 227 | 3.2 | 12.9 | 0.00 | 0.00 | 0.00 | 45 | 1007.8 |
| 20260505055122 | 14 | 1 | 6.4 | 16.1 | 0.00 | 0.00 | 0.00 | 45 | 1007.6 |
| 20260505054122 | 13 | 5 | 3.2 | 12.9 | 0.00 | 0.00 | 0.00 | 51 | 1007.5 |
| 20260505053143 | 12 | 338 | 4.8 | 12.9 | 0.00 | 0.00 | 0.00 | 52 | 1007.6 |
| 20260505052122 | 11 | 326 | 4.8 | 12.9 | 0.00 | 0.00 | 0.00 | 56 | 1007.7 |
| 20260505051122 | 11 | 315 | 3.2 | 8.0 | 0.00 | 0.00 | 0.00 | 57 | 1007.7 |
| 20260505050122 | 11 | 337 | 1.6 | 4.8 | 0.00 | 0.00 | 0.00 | 56 | 1007.6 |
| 20260505041143 | 13 | 238 | 1.6 | 3.2 | 0.00 | 0.00 | 0.00 | 53 | 1007.4 |
| 20260505040122 | 13 | 274 | 0.0 | 3.2 | 0.00 | 0.00 | 0.00 | 49 | 1007.2 |
| 20260505035143 | 13 | 269 | 1.6 | 3.2 | 0.00 | 0.00 | 0.00 | 48 | 1007.1 |
| 20260505034143 | 14 | 265 | 0.0 | 6.4 | 0.00 | 0.00 | 0.00 | 48 | 1007.0 |
| 20260505033143 | 14 | 0 | 0.0 | 1.6 | 0.00 | 0.00 | 0.00 | 47 | 1006.9 |
| 20260505032122 | 15 | 246 | 1.6 | 4.8 | 0.00 | 0.00 | 0.00 | 45 | 1006.8 |
| 20260505031122 | 15 | 240 | 1.6 | 4.8 | 0.00 | 0.00 | 0.00 | 44 | 1006.7 |
| 20260505030122 | 16 | 140 | 1.6 | 3.2 | 0.00 | 0.00 | 0.00 | 42 | 1006.6 |
| 20260505025122 | 16 | 0 | 0.0 | 0.0 | 0.00 | 0.00 | 0.00 | 39 | 1006.6 |
| 20260505024122 | 17 | 119 | 0.0 | 1.6 | 0.00 | 0.00 | 0.00 | 37 | 1006.5 |
| 20260505023122 | 17 | 106 | 1.6 | 3.2 | 0.00 | 0.00 | 0.00 | 35 | 1006.3 |
| 20260505022122 | 17 | 98 | 0.0 | 1.6 | 0.00 | 0.00 | 0.00 | 35 | 1006.1 |
| 20260505021143 | 17 | 102 | 1.6 | 3.2 | 0.00 | 0.00 | 0.00 | 35 | 1006.0 |
| 20260505020122 | 18 | 109 | 1.6 | 4.8 | 0.00 | 0.00 | 0.00 | 35 | 1005.9 |
| 20260505015122 | 18 | 93 | 3.2 | 9.7 | 0.00 | 0.00 | 0.00 | 35 | 1005.9 |
| 20260505014122 | 19 | 117 | 3.2 | 9.7 | 0.00 | 0.00 | 0.00 | 34 | 1005.9 |
| 20260505013122 | 19 | 130 | 3.2 | 11.3 | 0.00 | 0.00 | 0.00 | 33 | 1006.0 |
| 20260505012143 | 20 | 110 | 4.8 | 11.3 | 0.00 | 0.00 | 0.00 | 31 | 1006.1 |
| 20260505011143 | 20 | 129 | 4.8 | 11.3 | 0.00 | 0.00 | 0.00 | 30 | 1006.0 |
| 20260505010122 | 20 | 154 | 4.8 | 17.7 | 0.00 | 0.00 | 0.00 | 30 | 1006.1 |
| 20260505005122 | 20 | 183 | 4.8 | 8.0 | 0.00 | 0.00 | 0.00 | 28 | 1006.0 |
| 20260505004122 | 20 | 214 | 4.8 | 14.5 | 0.00 | 0.00 | 0.00 | 29 | 1005.9 |
| 20260505003143 | 20 | 251 | 6.4 | 14.5 | 0.00 | 0.00 | 0.00 | 28 | 1005.9 |
| 20260505002122 | 20 | 229 | 6.4 | 16.1 | 0.00 | 0.00 | 0.00 | 31 | 1006.0 |
| 20260505001122 | 21 | 231 | 6.4 | 14.5 | 0.00 | 0.00 | 0.00 | 30 | 1006.0 |
| 20260505000122 | 21 | 242 | 6.4 | 14.5 | 0.00 | 0.00 | 0.00 | 33 | 1006.1 |
| 20260504235122 | 21 | 241 | 6.4 | 12.9 | 0.00 | 0.00 | 0.00 | 29 | 1006.1 |
| 20260504234122 | 21 | 249 | 8.0 | 17.7 | 0.00 | 0.00 | 0.00 | 30 | 1006.0 |
| 20260504233122 | 21 | 249 | 9.7 | 19.3 | 0.00 | 0.00 | 0.00 | 28 | 1005.9 |
| 20260504232124 | 21 | 239 | 6.4 | 16.1 | 0.00 | 0.00 | 0.00 | 23 | 1005.9 |
| 20260504231123 | 22 | 230 | 6.4 | 12.9 | 0.00 | 0.00 | 0.00 | 24 | 1005.9 |
| 20260504230122 | 22 | 234 | 6.4 | 12.9 | 0.00 | 0.00 | 0.00 | 24 | 1005.9 |
| 20260504225122 | 22 | 221 | 8.0 | 20.9 | 0.00 | 0.00 | 0.00 | 28 | 1005.9 |
| 20260504224122 | 22 | 244 | 8.0 | 12.9 | 0.00 | 0.00 | 0.00 | 25 | 1006.1 |
| 20260504223122 | 22 | 254 | 8.0 | 19.3 | 0.00 | 0.00 | 0.00 | 22 | 1006.0 |
| 20260504222143 | 22 | 232 | 6.4 | 14.5 | 0.00 | 0.00 | 0.00 | 24 | 1006.1 |
| 20260504221122 | 22 | 218 | 6.4 | 22.5 | 0.00 | 0.00 | 0.00 | 28 | 1006.1 |
| 20260504220122 | 22 | 241 | 6.4 | 14.5 | 0.00 | 0.00 | 0.00 | 26 | 1006.3 |
| 20260504215122 | 22 | 241 | 4.8 | 11.3 | 0.00 | 0.00 | 0.00 | 23 | 1006.3 |
| 20260504214122 | 23 | 228 | 4.8 | 11.3 | 0.00 | 0.00 | 0.00 | 27 | 1006.5 |
| 20260504213122 | 23 | 223 | 6.4 | 11.3 | 0.00 | 0.00 | 0.00 | 24 | 1006.7 |
| 20260504212122 | 22 | 251 | 6.4 | 12.9 | 0.00 | 0.00 | 0.00 | 22 | 1006.8 |
| 20260504211122 | 22 | 246 | 6.4 | 17.7 | 0.00 | 0.00 | 0.00 | 25 | 1006.9 |
| 20260504210143 | 22 | 222 | 6.4 | 11.3 | 0.00 | 0.00 | 0.00 | 30 | 1007.0 |
| 20260504205122 | 22 | 252 | 9.7 | 17.7 | 0.00 | 0.00 | 0.00 | 24 | 1007.1 |
| 20260504204122 | 22 | 236 | 6.4 | 11.3 | 0.00 | 0.00 | 0.00 | 25 | 1007.1 |
| 20260504203122 | 22 | 237 | 6.4 | 12.9 | 0.00 | 0.00 | 0.00 | 25 | 1007.1 |
| 20260504202122 | 22 | 237 | 4.8 | 12.9 | 0.00 | 0.00 | 0.00 | 27 | 1007.2 |
| 20260504201122 | 22 | 229 | 8.0 | 16.1 | 0.00 | 0.00 | 0.00 | 27 | 1007.3 |
| 20260504200122 | 22 | 219 | 8.0 | 19.3 | 0.00 | 0.00 | 0.00 | 32 | 1007.5 |
| 20260504195122 | 21 | 223 | 9.7 | 20.9 | 0.00 | 0.00 | 0.00 | 28 | 1007.6 |
| 20260504194122 | 22 | 235 | 8.0 | 17.7 | 0.00 | 0.00 | 0.00 | 27 | 1007.7 |
| 20260504193122 | 21 | 226 | 8.0 | 17.7 | 0.00 | 0.00 | 0.00 | 27 | 1007.7 |
| 20260504192122 | 21 | 239 | 8.0 | 20.9 | 0.00 | 0.00 | 0.00 | 31 | 1007.7 |
| 20260504191122 | 21 | 248 | 6.4 | 12.9 | 0.00 | 0.00 | 0.00 | 29 | 1007.9 |
| 20260504190143 | 21 | 238 | 6.4 | 14.5 | 0.00 | 0.00 | 0.00 | 28 | 1008.0 |
| 20260504185122 | 21 | 234 | 8.0 | 16.1 | 0.00 | 0.00 | 0.00 | 31 | 1008.0 |
| 20260504184122 | 21 | 251 | 6.4 | 12.9 | 0.00 | 0.00 | 0.00 | 29 | 1008.2 |
| 20260504183122 | 21 | 250 | 6.4 | 12.9 | 0.00 | 0.00 | 0.00 | 30 | 1008.3 |
| 20260504182122 | 21 | 243 | 6.4 | 11.3 | 0.00 | 0.00 | 0.00 | 30 | 1008.5 |
| 20260504181122 | 21 | 237 | 6.4 | 17.7 | 0.00 | 0.00 | 0.00 | 32 | 1008.6 |
| 20260504180143 | 20 | 268 | 4.8 | 16.1 | 0.00 | 0.00 | 0.00 | 31 | 1008.7 |
| 20260504175122 | 20 | 266 | 3.2 | 12.9 | 0.00 | 0.00 | 0.00 | 33 | 1008.9 |
| 20260504174122 | 20 | 274 | 4.8 | 12.9 | 0.00 | 0.00 | 0.00 | 31 | 1009.0 |
| 20260504173122 | 20 | 330 | 1.6 | 6.4 | 0.00 | 0.00 | 0.00 | 32 | 1009.0 |
| 20260504172122 | 20 | 168 | 3.2 | 8.0 | 0.00 | 0.00 | 0.00 | 32 | 1009.2 |
| 20260504171122 | 19 | 163 | 3.2 | 6.4 | 0.00 | 0.00 | 0.00 | 34 | 1009.2 |
| 20260504170122 | 18 | 145 | 1.6 | 6.4 | 0.00 | 0.00 | 0.00 | 33 | 1009.4 |
| 20260504160122 | 15 | 163 | 1.6 | 6.4 | 0.00 | 0.00 | 0.00 | 34 | 1009.9 |
| 20260504151144 | 10 | 252 | 0.0 | 1.6 | 0.00 | 0.00 | 0.00 | 49 | 1010.5 |
| 20260504150123 | 8 | 254 | 0.0 | 3.2 | 0.00 | 0.00 | 0.00 | 52 | 1010.6 |
| 20260504141143 | 6 | 0 | 0.0 | 0.0 | 0.00 | 0.00 | 0.00 | 66 | 1010.9 |
| 20260504140122 | 6 | 0 | 0.0 | 0.0 | 0.00 | 0.00 | 0.00 | 66 | 1011.1 |